Regional Weather Roundup
Issued by NWS

Home | Current Version | Previous Version | Text Only | Print | Product List | Glossary Off
Versions: 1 2 3 4 5 6 7 8 9 10 11 12 13 14 15 16 17 18 19 20 21 22 23 24 25 26 27 28 29 30 31 32 33 34 35 36 37 38 39 40 41 42 43 44 45 46 47 48 49 50

000
ASUS45 KPSR 281410
RWRAZ

ARIZONA REGIONAL HOURLY WEATHER ROUNDUP
NATIONAL WEATHER SERVICE PHOENIX AZ
700 AM MST SAT MAR 28 2015

NOTE: FAIR INDICATES FEW OR NO CLOUDS BELOW 12,000 FEET WITH NO
SIGNIFICANT WEATHER AND/OR OBSTRUCTIONS TO VISIBILITY.

AZZ001>003-036-281500-
NORTHWEST ARIZONA

CITY           SKY/WX    TMP DP  RH WIND       PRES   REMARKS
BULLHEAD CITY  CLEAR     59  27  29 SE6       30.05R
KINGMAN        CLEAR     52  25  35 CALM      30.15R
$$

AZZ004>008-015-016-018-281500-
NORTH CENTRAL ARIZONA

CITY           SKY/WX    TMP DP  RH WIND       PRES   REMARKS
GRAND CANYON   PTCLDY    27  20  75 CALM      30.31S
WILLIAMS       CLEAR     32  21  64 S10       30.38R WCI  24
PRESCOTT       PTCLDY    43  20  39 SW6       30.25R
FLAGSTAFF      PTCLDY    30  21  69 CALM      30.33R
PAYSON         CLEAR     48  21  34 CALM      30.26S
PAGE           CLEAR     52  24  33 SE5       30.19R
$$

AZZ009>014-017-281500-
NORTHEAST ARIZONA

CITY           SKY/WX    TMP DP  RH WIND       PRES   REMARKS
WINSLOW        PTCLDY    41  22  46 SE8       30.26R
SAINT JOHNS    PTCLDY    37  19  48 W3        30.28R
WINDOW ROCK    CLEAR     31  17  56 CALM      30.32R
SHOW LOW       CLEAR     39  18  41 CALM      30.33S
$$

AZZ023-281500-
GREATER PHOENIX AREA

CITY           SKY/WX    TMP DP  RH WIND       PRES   REMARKS
PHOENIX        CLEAR     65  31  28 SE7       30.04R
BUCKEYE        CLEAR     50  32  50 CALM      30.06R
GLENDALE       CLEAR     59  36  41 N3        30.07
LUKE AFB       CLEAR     57  40  53 VRB2      30.05R
DEER VALLEY    CLEAR     58  31  35 CALM      30.05R
SCOTTSDALE     CLEAR     59  38  45 CALM      30.07R
MESA-FALCON    CLEAR     63  28  27 NE10        N/A
MESA-GATEWAY   CLEAR     55  27  33 E6        30.08R
CHANDLER       CLEAR     54  32  43 NE6       30.06R
$$

AZZ027-028-281500-
SOUTHWEST MARICOPA COUNTY AND PINAL COUNTY

CITY           SKY/WX    TMP DP  RH WIND       PRES   REMARKS
CASA GRANDE    CLEAR     57  28  33 CALM      30.06R
GILA BEND      FAIR      60  21  22 S7        30.03R
$$

AZZ503-504-507>509-281500-
SOUTHEAST ARIZONA

CITY           SKY/WX    TMP DP  RH WIND       PRES   REMARKS
TUCSON         CLEAR     56  25  30 SE13      30.16R
DAVIS-MONTHAN  CLEAR     54  26  33 SE9       30.14R
RYAN FIELD       N/A     52  32  46 SE5       30.14S
NOGALES        CLEAR     47  24  40 S5        30.21R
SIERRA VISTA   CLEAR     56  20  24 SW8       30.25R HAZE
DOUGLAS        PTCLDY    41  27  57 NW3       30.22R
SAFFORD        CLEAR     47  23  38 E5        30.17R
$$

AZZ020-021-025-026-031-281500-
SOUTHWEST ARIZONA

CITY           SKY/WX    TMP DP  RH WIND       PRES   REMARKS
YUMA           CLEAR     64  41  42 CALM      29.99R
$$

CAZ031-033-041-043-047-048-061-281500-
SOUTHERN CALIFORNIA

CITY           SKY/WX    TMP DP  RH WIND       PRES   REMARKS
DOWNTOWN L.A.  MOCLDY    61  58  90 CALM      30.06S FOG
L.A. AIRPORT   CLOUDY    58  58 100 E5        30.07R FOG
SAN DIEGO      CLOUDY    61  57  87 NE3       30.08S FOG
BURBANK        CLEAR     58  41  53 CALM      30.06R
ONTARIO        CLEAR     61  42  49 NE3       30.07S
RIVERSIDE      CLEAR     57  41  55 CALM      30.08R
PALM SPRINGS   CLEAR     65  41  41 CALM      30.01R
EL CENTRO NAS  CLEAR     63  30  28 W5        29.98R
IMPERIAL       CLEAR     61  36  39 CALM      29.97R
BLYTHE         CLEAR     62  32  32 NW9       30.01R
NEEDLES        CLEAR     62  26  25 CALM      30.03R
$$

NVZ020-UTZ003-281500-
SOUTHERN NEVADA-UTAH

CITY           SKY/WX    TMP DP  RH WIND       PRES   REMARKS
LAS VEGAS      CLEAR     64  26  23 SW7       30.04R
SALT LAKE CITY PTCLDY    53  33  46 S10       30.09S
$$

NMZ009-TXZ055-281500-
NEW MEXICO-WEST TEXAS

CITY           SKY/WX    TMP DP  RH WIND       PRES   REMARKS
ALBUQUERQUE    SUNNY     51  21  30 NE3       30.25R
EL PASO        SUNNY     58  23  26 VRB3      30.16R
$$


........................KEY........................
SKY/WX - SKY CONDITION/WEATHER
TMP    - TEMPERATURE IN FAHRENHEIT
DP     - DEW POINT IN FAHRENHEIT
RH     - RELATIVE HUMIDITY IN PERCENT
WIND   - DIRECTION AND SPEED IN MILES PER HOUR (MPH)
VRB    - VARIABLE WIND DIRECTION
PRES   - MEAN SEA LEVEL PRESSURE IN INCHES OF MERCURY
         F - FALLING PRESSURE   R - RISING PRESSURE
         S - STEADY PRESSURE
VSB    - VISIBILITY IN MILES
HX     - HEAT INDEX IN FAHRENHEIT
WCI    - WIND CHILL INDEX IN FAHRENHEIT
TC     - TEMPERATURE IN CELSIUS WHICH IS ALSO KNOWN AS
         TEMPERATURE IN CENTIGRADE
AFB    - AIR FORCE BASE
         LUKE AFB IS LUKE AIR FORCE BASE
         DAVIS-MONTHAN IS DAVIS-MONTHAN AIR FORCE BASE
NAS    - NAVAL AIR STATION
         EL CENTRO NAS IS EL CENTRO NAVAL AIR STATION
N/A    - NOT AVAILABLE



USA.gov is the U.S. government's official web portal to all federal, state and local government web resources and services.